Back to catalog

FENGYUN 1C DEB

AliveSSO
NORAD 31805·DEBRIS·🇨🇳 China

Launched May 10, 1999 from Taiyuan Satellite Launch Center

Loading…

Next Passes (next 24 hours)

TLE

AgingSource: Space-Track

Epoch: Sep 10, 2026, 03:40 UTC

1 31805U 99025CGT 26253.15334821  .00003769  00000-0  96810-3 0  9999
2 31805  98.3857 222.6438 0433726 105.7738 259.1695 14.06674394661758

Track FENGYUN 1C DEB in real time with AllMySat

Download on the App Store